User: anonymous   Login
Location: Newsoms
(36.6240°N, 77.1250°W)
Time: 20:01:09
(UTC-04:00)
Language:

BREEZE-M DEB (TANK) - Orbit

View from above orbital plane
View from above orbital plane
View from above satellite
View from above satellite

Ground track
Ground track

The orbit data is extracted from the following two-line orbital elements,

1 29649U 06056B   15208.87267501  .00002405  00000-0  65489-3 0  9995
2 29649 049.5053 017.3531 5384231 091.6374 015.5418 04.97062308153354
Epoch (UTC): 27 July 2015 20:56:39
Eccentricity: 0.5384231
inclination: 49.5053°
perigee height: 316 km
apogee height: 15933 km
right ascension of ascending node: 17.3531°
argument of perigee: 91.6374°
revolutions per day: 4.97062308
mean anomaly at epoch: 15.5418°
orbit number at epoch: 15335

The dashed part of the orbit path shows where the satellite is in the earth's shadow,  

DLR